Find Starlink 33553

NORAD ID: 62108 Int'l Des: 2024-220 Owner: SPXS Country: US Constellation: starlink operational
LEOCIRCULAR

Live Position

Loading 3D Globe...

About Starlink 33553

Description loading...

Upcoming Passes

Passes for default location (London). Set your location on the main map for personalized predictions.

Altitude History

Loading altitude history...

Two-Line Element Set

1 62108U 24220W 26140.10656102 .00008575 00000-0 32058-3 0 9997
2 62108 42.9920 162.1991 0000287 202.1356 157.9483 15.27596759 84117
Epoch: May 20, 2026 • Age: 5 hours

Current Status

Altitude 482.2 km
Velocity 7.63 km/s
Sub-Earth Point 3.15°N, 20.89°W
Launch Date Nov 25, 2024
Age 1.4 years
Type internet

Technical Details

Classification Payload
Mass 530.00 kg
Dry Mass 500.00 kg
Total Mass 530.00 kg
Length 0.30 m
Diameter 4.10 m
Span 29.00 m
Shape Box + pan
Manufacturer SPXS
Bus Type Starlink V2MO
Phase Status In Orbit
Owner/State SPXS/US

Most Searched